Tracking 28794 objects as of 22-Apr-2024
HD Live streaming from Space Station
objects crossing your sky now

STARLINK-4362

Track STARLINK-4362 now!
10-day predictions
STARLINK-4362 is classified as:


NORAD ID: 53043
Int'l Code: 2022-077A
Perigee: 568.5 km
Apogee: 571.8 km
Inclination: 97.7 °
Period: 95.9 minutes
Semi major axis: 6941 km
RCS: Unknown
Launch date: July 11, 2022
Source: United States (US)
Launch site: AIR FORCE WESTERN TEST RANGE (AFWTR)
Your satellite tracking list
Your tracking list is empty




NASA's NSSDC Master Catalog

Two Line Element Set (TLE):
1 53043U 22077A   24112.45687171 -.00000553  00000-0 -38433-4 0  9992
2 53043  97.6569 294.1123 0002346  83.5610 276.5881 15.01264547 97816
Source of the keplerian elements: AFSPC